Location: Unspecified
(0.0000°N, 0.0000°E)
Time: 09:40:29
(UTC+00:00)

BlueWalker 3 - Pass Details

Date: 24 July 2024
Orbit: 461 x 469 km, 53.2° (Epoch: 17 July)

Event Time Altitude Azimuth Distance (km) Brightness Sun altitude
Exits shadow 04:33:54 - 161° (SSE) 1,778 4.7 -21.7°
Reaches altitude 10° 04:34:27 10° 155° (SSE) 1,658 4.6 -21.6°
Maximum altitude 04:36:19 13° 125° (SE) 1,464 4.7 -21.2°
Drops below altitude 10° 04:38:10 10° 95° (E) 1,658 5.5 -20.7°
Sets 04:41:17 0° 67° (ENE) 2,536 7.1 -20.0°
